[[{"header":{"parameterUnit":"m.s-1","parameterCategory":1,"la1":30.2991,"la2":30.254,"lo1":-89.0895,"lo2":-89.0444,"dy":0.0017,"dx":0.0017,"nx":28,"ny":28,"refTime":"2023-07-27T21:00:00:Z","depth":0,"parameterNumber":2,"parameterNumberName":"U-component_of_WINDS"},"data":[0,0,0,0,0,0,0,0,0,0,0,0,0,0,0,0,0,0,0,0,0,0,0,0,0,0,0,0,0,0,0,0,0,0,0,0,0,0,0,0,0,0,0,0,0,0,0,0,0,0,0,0,0,0,0,0,0,0,0.3079,0.308,0,0.318,0.3181,0.3182,0.3238,0.3238,0.3238,0.3238,0.3342,0.3345,0.3347,0,0,0,0,0,0,0,0,0,0,0,0,0,0.2933,0.2936,0.3078,0.308,0.3081,0.318,0.3181,0.3183,0.3238,0.3238,0.3238,0.3238,0.3341,0.3345,0.3348,0,0,0,0,0,0,0,0,0,0,0,0,0,0.3012,0.2936,0.3078,0.312,0.3125,0.3179,0.3181,0.3183,0.3238,0.3238,0.3238,0.3238,0.334,0.3344,0.3348,0.3368,0,0,0.336,0.3362,0,0,0,0,0,0,0,0,0.3007,0.3017,0.3113,0.3118,0.3123,0.3196,0.3168,0.3245,0.3238,0.3195,0.3238,0.3238,0.3294,0.3301,0.332,0.3373,0.3378,0.3361,0.3363,0.3365,0.3366,0,0,0,0,0,0,0,0.3002,0.3013,0.3119,0.3114,0.3121,0.3135,0.3146,0.3183,0.3242,0.3199,0.3203,0.3214,0.3296,0.3316,0.3323,0.3379,0.3361,0.3364,0.3366,0.3368,0.3455,0.3455,0,0,0,0,0,0,0.2989,0.3008,0.3115,0.3122,0.3064,0.3137,0.315,0.3173,0.3242,0.3252,0.3214,0.3216,0.3309,0.3318,0.3327,0.3356,0.3365,0.3368,0.3371,0.3455,0.3455,0.3455,0,0,0,0,0,0,0.2986,0.2998,0.3111,0.3066,0.3081,0.3139,0.3165,0.3175,0.3194,0.3253,0.3264,0.3223,0.331,0.3321,0.3358,0.336,0.337,0.3374,0.3455,0.3455,0.3455,0.3413,0,0,0,0,0,0,0.2982,0.2997,0.3005,0.3066,0.3084,0.314,0.3165,0.3176,0.3201,0.3205,0.3265,0.3275,0.3311,0.3352,0.3362,0.3366,0.3377,0.3455,0.3455,0.3455,0.3414,0.3411,0.3409,0,0,0,0,0,0.2976,0.2989,0.3005,0.3018,0.3095,0.314,0.3151,0.3192,0.3201,0.321,0.3247,0.3273,0.3358,0.3355,0.3367,0.3372,0.3455,0.3455,0.3455,0.3415,0.3412,0.3409,0,0,0,0,0,0,0.2926,0.2997,0.3016,0.3049,0.3088,0.315,0.3162,0.3186,0.3224,0.3226,0.3276,0.3289,0.3321,0.335,0.3345,0.3395,0.3409,0.3412,0.3375,0.3372,0.3369,0.3362,0.338,0,0,0,0,0,0.2919,0.295,0.3011,0.3033,0.3052,0.3103,0.3125,0.3153,0.3196,0.3213,0.3253,0.3294,0.333,0.3353,0.3389,0.3419,0.3433,0.3428,0.3425,0.3423,0.3424,0.3442,0.3441,0.3455,0.3455,0.3455,0,0,0.2905,0.2947,0.2964,0.3025,0.3058,0.3089,0.3117,0.3149,0.3172,0.3218,0.3255,0.3286,0.3335,0.3368,0.3385,0.3393,0.3423,0.3422,0.342,0.3423,0.3442,0.3441,0.344,0.3454,0.3454,0.3454,0,0,0.2894,0.2929,0.2953,0.2986,0.3037,0.3071,0.3076,0.3135,0.3157,0.3195,0.323,0.3259,0.332,0.3353,0.3378,0.3381,0.3406,0.3391,0.3377,0.3394,0.3393,0.3392,0.3394,0.3394,0.3392,0.3392,0.3392,0,0.2869,0.2918,0.2961,0.2991,0.3017,0.306,0.3084,0.3114,0.3174,0.3191,0.32,0.3278,0.3314,0.3356,0.3356,0.3375,0.3383,0.3385,0.339,0.3389,0.339,0.3391,0.3392,0.339,0.3391,0.3391,0.3391,0,0.2885,0.2918,0.2931,0.2988,0.3016,0.3042,0.3091,0.3113,0.3139,0.3172,0.3211,0.3255,0.3302,0.3314,0.3339,0.336,0.3363,0.338,0.3395,0.3385,0.3388,0.3389,0.3387,0.3388,0.3389,0.3389,0,0,0.2846,0.2927,0.2931,0.2958,0.3018,0.3044,0.3073,0.3119,0.3137,0.3177,0.3203,0.3254,0.327,0.3298,0.3328,0.3343,0.3343,0.3359,0.336,0.3354,0.3369,0.3356,0.3356,0.336,0.336,0.3361,0.3365,0,0.2844,0.2898,0.2939,0.2978,0.3009,0.305,0.3076,0.3115,0.3147,0.3178,0.3214,0.3249,0.3267,0.3285,0.3301,0.3339,0.3347,0.334,0.3385,0.3386,0.3371,0.3357,0.3344,0.3346,0.3366,0.3366,0.3366,0,0.2849,0.2888,0.293,0.2987,0.3002,0.3024,0.3069,0.3098,0.3144,0.3166,0.3198,0.3229,0.3262,0.3274,0.332,0.3314,0.3335,0.3356,0.3358,0.3364,0.3376,0.3363,0.3347,0.3347,0.3368,0.3368,0.3368,0,0.2817,0.288,0.2913,0.2935,0.3002,0.3017,0.3045,0.3091,0.3116,0.3156,0.3173,0.3215,0.3239,0.3271,0.3313,0.3318,0.3355,0.337,0.3375,0.3373,0.3381,0.338,0.3368,0.3393,0.3393,0.3393,0.3393,0,0.2811,0.2835,0.29,0.292,0.2949,0.2995,0.3022,0.3054,0.3095,0.3123,0.3161,0.3186,0.3239,0.3271,0.3304,0.3338,0.3348,0.3367,0.3375,0.3364,0.3361,0.3378,0.3379,0.3394,0.3394,0.3394,0.3394,0,0.2779,0.2823,0.2863,0.2923,0.2939,0.2958,0.301,0.3031,0.3065,0.31,0.3111,0.3164,0.3204,0.3249,0.3303,0.3325,0.3356,0.3369,0.3341,0.3346,0.3348,0.3347,0.3346,0.3349,0.3372,0.3372,0.3372,0,0.2772,0.2792,0.2855,0.2876,0.2904,0.2938,0.2964,0.3011,0.3036,0.309,0.3105,0.3147,0.3184,0.3245,0.3289,0.3331,0.3344,0.3341,0.3351,0.3338,0.3345,0.3343,0.3345,0.3338,0.3338,0.3338,0.3337,0,0.2756,0.2777,0.2813,0.2856,0.2886,0.2923,0.2961,0.2976,0.3031,0.3057,0.3098,0.3127,0.3182,0.3224,0.3271,0.3301,0.3328,0.3334,0.3337,0.3325,0.3308,0.3318,0.3334,0.3334,0.3334,0.3334,0.3335,0.3335,0.2737,0.2756,0.2804,0.2843,0.2877,0.2911,0.2935,0.2972,0.3007,0.3056,0.3082,0.3122,0.3168,0.3235,0.3264,0.3296,0.3305,0.331,0.3311,0.3311,0.3308,0.3303,0.3305,0.3305,0.3305,0.3305,0.3305,0,0.2722,0.2755,0.279,0.2843,0.2874,0.2897,0.2941,0.2965,0.3,0.304,0.3076,0.3123,0.3164,0.3211,0.3254,0.3271,0.3285,0.3281,0.3281,0.3287,0.3298,0.329,0.327,0.327,0.327,0.327,0.327,0.327,0.2718,0.2753,0.278,0.2832,0.2865,0.2905,0.2928,0.296,0.2993,0.3044,0.3078,0.3109,0.3152,0.32,0.3238,0.3251,0.3265,0.3258,0.3274,0.3283,0.3286,0.3289,0.3283,0.3261,0.3261,0.3262,0.3262,0.3261]},{"header":{"parameterUnit":"m.s-1","parameterCategory":1,"la1":30.2991,"la2":30.254,"lo1":-89.0895,"lo2":-89.0444,"dy":0.0017,"dx":0.0017,"nx":28,"ny":28,"refTime":"2023-07-27T21:00:00:Z","depth":0,"parameterNumber":3,"parameterNumberName":"V-component_of_WINDS"},"data":[0,0,0,0,0,0,0,0,0,0,0,0,0,0,0,0,0,0,0,0,0,0,0,0,0,0,0,0,0,0,0,0,0,0,0,0,0,0,0,0,0,0,0,0,0,0,0,0,0,0,0,0,0,0,0,0,0,0,2.61,2.61,0,2.6134,2.6135,2.6135,2.6191,2.6192,2.6193,2.6194,2.6225,2.6225,2.6225,0,0,0,0,0,0,0,0,0,0,0,0,0,2.6077,2.6077,2.61,2.61,2.6101,2.6134,2.6135,2.6135,2.619,2.6192,2.6193,2.6194,2.6225,2.6225,2.6225,0,0,0,0,0,0,0,0,0,0,0,0,0,2.6097,2.6077,2.61,2.6132,2.6136,2.6134,2.6135,2.6135,2.619,2.6192,2.6193,2.6195,2.6226,2.6225,2.6225,2.6193,0,0,2.6225,2.6225,0,0,0,0,0,0,0,0,2.6096,2.6097,2.6127,2.613,2.6134,2.616,2.6138,2.6155,2.619,2.6169,2.6194,2.6195,2.6202,2.6204,2.6207,2.6195,2.6196,2.6225,2.6225,2.6225,2.6224,0,0,0,0,0,0,0,2.6094,2.6096,2.6113,2.6127,2.6131,2.6144,2.6148,2.6142,2.6177,2.6171,2.6175,2.6179,2.6204,2.6207,2.6208,2.6197,2.6225,2.6225,2.6224,2.6224,2.6158,2.6156,0,0,0,0,0,0,2.6089,2.6095,2.6112,2.6114,2.6118,2.6143,2.6148,2.615,2.6177,2.6182,2.6178,2.6181,2.6206,2.6208,2.6209,2.6173,2.6225,2.6224,2.6224,2.616,2.6158,2.6156,0,0,0,0,0,0,2.6088,2.609,2.6111,2.6106,2.6109,2.6142,2.6143,2.615,2.6153,2.6182,2.6188,2.6174,2.6208,2.621,2.6197,2.6175,2.6224,2.6224,2.6162,2.6159,2.6157,2.61,0,0,0,0,0,0,2.6087,2.6089,2.6078,2.6105,2.6109,2.6099,2.6142,2.6149,2.6153,2.6158,2.618,2.6185,2.6209,2.6197,2.6197,2.6175,2.6224,2.6164,2.6161,2.6158,2.6103,2.6095,2.6088,0,0,0,0,0,2.6086,2.6061,2.6078,2.6079,2.6097,2.6097,2.61,2.6129,2.6151,2.6139,2.6158,2.6185,2.6177,2.6195,2.6195,2.6173,2.6165,2.6161,2.6158,2.6107,2.6097,2.6089,0,0,0,0,0,0,2.603,2.6065,2.6084,2.6067,2.6079,2.6107,2.6094,2.6118,2.6123,2.6127,2.6162,2.6166,2.6148,2.616,2.6179,2.6143,2.6175,2.6171,2.6136,2.6127,2.612,2.6117,2.6224,0,0,0,0,0,2.6016,2.6014,2.6044,2.6026,2.6031,2.6061,2.6062,2.6084,2.6097,2.6102,2.612,2.613,2.613,2.6129,2.6131,2.6105,2.611,2.609,2.6083,2.6077,2.6073,2.6058,2.6049,2.6144,2.6144,2.6144,0,0,2.5986,2.6005,2.6002,2.6015,2.6027,2.6023,2.6065,2.606,2.6057,2.6101,2.609,2.6103,2.6117,2.6097,2.6089,2.6106,2.6047,2.6072,2.6067,2.6066,2.6053,2.6044,2.6036,2.6141,2.6141,2.6142,0,0,2.593,2.5945,2.593,2.5941,2.5958,2.5978,2.5975,2.5999,2.6009,2.5999,2.6031,2.6027,2.6027,2.6035,2.604,2.5984,2.6009,2.5984,2.5944,2.5929,2.5922,2.5915,2.5894,2.5886,2.598,2.598,2.598,0,2.589,2.5887,2.592,2.5912,2.5916,2.5956,2.5941,2.5949,2.5966,2.5967,2.5986,2.5985,2.5998,2.5979,2.5966,2.5968,2.5964,2.5981,2.5921,2.5914,2.5909,2.5889,2.5881,2.5977,2.5977,2.5977,2.5978,0,2.5837,2.5834,2.582,2.5835,2.5838,2.5826,2.5855,2.5854,2.5874,2.5891,2.5879,2.5895,2.59,2.5897,2.5917,2.5881,2.5891,2.5915,2.5947,2.5896,2.5878,2.5871,2.5972,2.5973,2.5974,2.5975,0,0,2.5747,2.578,2.5774,2.578,2.5802,2.5799,2.5789,2.5794,2.5791,2.5801,2.5791,2.5789,2.5811,2.5816,2.5837,2.5824,2.5777,2.5849,2.585,2.5834,2.5736,2.5717,2.5708,2.5793,2.5792,2.5791,2.5734,0,2.5694,2.5679,2.5707,2.5684,2.5681,2.5718,2.5708,2.5719,2.5735,2.5733,2.5749,2.5747,2.5777,2.5779,2.5768,2.5785,2.5757,2.579,2.5783,2.5783,2.5778,2.5699,2.568,2.5626,2.5728,2.5726,2.5726,0,2.5631,2.5637,2.5614,2.5636,2.5635,2.5626,2.5632,2.5631,2.5643,2.5655,2.5659,2.5684,2.5673,2.5705,2.5689,2.571,2.5709,2.5717,2.5715,2.5715,2.575,2.5695,2.5609,2.56,2.5715,2.5716,2.5717,0,2.5565,2.5568,2.5555,2.556,2.5584,2.5577,2.5586,2.5601,2.5602,2.5607,2.5607,2.561,2.5612,2.5613,2.5637,2.5659,2.5618,2.5652,2.5626,2.5625,2.5615,2.5615,2.5526,2.5616,2.5616,2.5616,2.5616,0,2.5503,2.5487,2.5526,2.5517,2.55,2.5531,2.5513,2.5526,2.5538,2.5531,2.5564,2.5556,2.5589,2.5585,2.5604,2.5587,2.5587,2.5595,2.56,2.5592,2.5591,2.5591,2.5595,2.5614,2.5615,2.5615,2.5615,0,2.5427,2.5453,2.544,2.5464,2.547,2.5456,2.5476,2.5468,2.5485,2.5476,2.5475,2.5502,2.5498,2.5523,2.5524,2.5536,2.551,2.5522,2.5506,2.5509,2.5481,2.5483,2.5388,2.5377,2.5474,2.5473,2.5473,0,2.5385,2.5374,2.5397,2.5395,2.5403,2.54,2.5401,2.5431,2.543,2.5443,2.5433,2.5432,2.5433,2.5426,2.5444,2.5444,2.5456,2.5423,2.5456,2.5447,2.5454,2.5454,2.5452,2.5415,2.5414,2.5413,2.5412,0,2.5308,2.532,2.5321,2.5326,2.5326,2.5331,2.5338,2.5335,2.5367,2.5364,2.5361,2.5362,2.5363,2.5361,2.5365,2.5373,2.5397,2.5402,2.5395,2.5386,2.5377,2.538,2.5486,2.5404,2.5405,2.5405,2.5406,2.5406,2.5247,2.5238,2.5252,2.5251,2.526,2.5265,2.5258,2.5275,2.5273,2.5277,2.5294,2.5287,2.5298,2.5306,2.5312,2.5306,2.5322,2.5313,2.5311,2.5308,2.5302,2.5379,2.5307,2.5307,2.5308,2.5308,2.5308,0,2.517,2.5181,2.518,2.5188,2.5187,2.5211,2.5219,2.5216,2.5211,2.5219,2.5219,2.5215,2.5213,2.5231,2.5231,2.5223,2.5234,2.5222,2.5222,2.5223,2.5289,2.5294,2.5213,2.5213,2.5213,2.5213,2.5213,2.5213,2.513,2.5115,2.5129,2.5118,2.5129,2.5124,2.5126,2.513,2.5137,2.5131,2.513,2.5142,2.5154,2.5155,2.5153,2.5158,2.5156,2.514,2.5149,2.521,2.5219,2.5228,2.5232,2.514,2.514,2.5084,2.5083,2.5083]}]]